Total_Precipitation_Accumulation
1.59 1.31 2.12 2.21 1.99 1.74 1.63 1.63 1.75 1.83 1.83 1.70 1.68 1.62 1.44 1.24 1.08 0.98 0.89 0.86 0.82 0.79 0.79 0.79 0.86 0.91 0.89 0.87 0.93 0.96 0.98 0.88 0.87 0.85 0.78 0.79 0.93 0.91 0.89 1.14 1.63 2.01 1.38
0.98 1.05 1.98 2.13 1.88 1.70 1.57 1.64 1.84 1.89 1.95 1.85 1.68 1.57 1.38 1.16 1.02 0.91 0.90 0.82 0.79 0.78 0.79 0.79 0.83 0.94 0.97 0.92 0.96 1.02 0.95 0.92 0.96 1.03 1.04 1.03 0.98 0.95 0.93 1.08 1.49 1.82 1.38
0.76 0.91 1.50 2.04 1.85 1.76 1.72 1.72 1.78 1.87 1.84 1.64 1.52 1.41 1.29 1.13 0.99 0.93 0.88 0.81 0.77 0.79 0.72 0.70 0.76 0.85 0.90 0.94 0.94 0.91 0.85 0.91 1.00 1.20 1.61 2.06 1.48 1.12 1.12 1.09 1.31 1.33 1.24
0.79 0.85 1.13 1.83 1.88 1.82 1.78 1.76 1.72 1.69 1.66 1.48 1.39 1.30 1.20 1.18 1.08 1.00 0.92 0.86 0.76 0.70 0.68 0.71 0.69 0.74 0.78 0.81 0.86 0.82 0.78 0.90 1.03 1.24 1.67 2.15 1.94 1.49 1.34 1.30 1.40 1.24 1.19
0.85 0.91 1.28 1.90 1.89 1.82 1.79 1.79 1.84 1.68 1.61 1.44 1.25 1.22 1.17 1.18 1.08 1.02 0.94 0.84 0.75 0.71 0.66 0.69 0.72 0.74 0.82 0.82 0.80 0.78 0.79 0.91 1.13 1.06 1.35 1.81 2.24 1.93 1.45 1.46 1.54 1.35 1.29
0.92 1.00 1.31 1.75 1.82 1.81 1.80 1.80 1.73 1.57 1.47 1.37 1.20 1.19 1.22 1.18 1.10 1.03 0.94 0.87 0.78 0.78 0.74 0.72 0.77 0.83 0.87 0.86 0.85 0.90 0.97 1.00 0.96 1.08 1.38 1.74 2.20 2.00 1.58 1.48 1.40 1.48 1.39
0.95 0.97 1.23 1.65 1.72 1.75 1.66 1.51 1.48 1.47 1.36 1.22 1.16 1.12 1.13 1.10 1.05 0.99 1.03 0.98 0.87 0.83 0.79 0.80 0.83 0.83 0.85 0.88 0.92 0.99 1.07 0.98 0.93 1.18 1.32 1.67 1.78 1.78 1.52 1.39 1.45 1.65 1.54
1.00 0.92 1.03 1.40 1.52 1.54 1.49 1.43 1.44 1.41 1.32 1.15 1.07 1.04 1.03 1.05 0.96 0.89 0.90 0.88 0.87 0.86 0.84 0.80 0.80 0.73 0.76 0.88 0.97 1.06 1.17 1.03 0.91 1.07 1.13 1.45 1.82 1.85 1.46 1.38 1.44 1.64 1.72
1.30 1.12 1.01 1.10 1.25 1.36 1.45 1.48 1.55 1.54 1.45 1.26 1.09 1.05 1.02 0.94 0.79 0.73 0.79 0.83 0.84 0.81 0.83 0.83 0.85 0.81 0.82 0.97 1.06 1.13 1.21 1.06 1.01 1.04 0.93 1.43 1.95 1.75 1.42 1.27 1.31 1.48 1.59
1.30 1.26 1.13 1.08 1.12 1.18 1.29 1.51 1.70 1.79 1.83 1.55 1.22 1.12 1.00 0.83 0.74 0.76 0.77 0.82 0.87 0.91 0.93 0.96 1.00 0.97 1.04 1.05 1.08 1.10 1.05 0.90 0.92 0.91 1.09 1.37 1.87 1.74 1.39 1.21 1.20 1.18 1.25
0.93 1.00 1.04 1.03 1.10 1.11 1.14 1.27 1.60 1.79 1.92 1.58 1.14 1.16 1.03 0.75 0.72 0.79 0.81 1.02 1.10 1.12 1.15 1.18 1.18 1.17 1.15 1.09 1.12 1.14 0.90 0.67 0.80 0.98 1.18 1.49 1.86 1.75 1.37 1.19 1.01 0.99 1.02
0.75 0.71 0.72 0.73 0.79 0.89 0.95 1.22 1.54 1.60 1.71 1.38 1.13 1.16 1.08 1.11 1.04 0.81 0.85 1.16 1.29 1.34 1.26 1.25 1.31 1.20 1.00 0.83 0.86 0.87 0.74 0.72 0.81 0.93 1.13 1.62 1.95 1.76 1.41 1.18 0.96 0.92 0.93
0.56 0.54 0.53 0.55 0.56 0.67 0.92 1.21 1.49 1.59 1.66 1.60 1.57 1.39 1.33 1.26 1.06 0.89 0.86 0.93 1.01 1.11 1.05 1.14 1.16 0.99 0.90 0.79 0.77 0.73 0.68 0.79 0.98 0.95 1.19 1.69 2.00 1.84 1.57 1.33 1.06 0.98 0.98
0.58 0.56 0.49 0.42 0.45 0.55 0.71 0.92 1.23 1.41 1.50 1.49 1.46 1.19 1.24 1.24 1.06 1.00 1.09 1.12 1.08 1.07 1.21 1.25 1.24 1.17 1.00 0.82 0.80 0.84 0.81 0.80 0.98 1.09 1.29 1.50 1.88 2.10 1.89 1.58 1.33 1.24 1.19
0.66 0.74 0.70 0.54 0.49 0.56 0.62 0.65 0.80 0.97 1.08 1.34 1.42 1.09 1.02 1.04 1.11 1.13 1.03 1.17 1.24 1.24 1.25 1.25 1.18 1.14 1.15 0.99 1.00 1.05 1.05 0.91 0.98 1.03 1.17 1.25 1.58 2.12 2.27 2.00 1.77 1.57 1.45
0.51 0.62 0.67 0.66 0.68 0.67 0.59 0.53 0.52 0.58 0.72 0.88 0.93 0.83 0.82 0.85 0.98 1.17 1.08 1.07 1.15 1.32 1.38 1.34 1.25 1.31 1.30 1.13 1.13 1.20 1.17 1.08 1.08 1.11 1.22 1.14 1.14 1.49 1.92 2.12 2.12 1.96 1.77
0.41 0.46 0.54 0.59 0.65 0.69 0.74 0.70 0.56 0.57 0.65 0.68 0.68 0.70 0.76 0.76 0.89 1.08 1.04 0.96 0.97 1.13 1.31 1.45 1.50 1.49 1.31 1.23 1.21 1.25 1.17 1.15 1.15 1.31 1.30 1.28 1.15 1.06 1.31 1.57 1.84 1.95 1.96
0.40 0.40 0.46 0.46 0.52 0.62 0.75 0.81 0.76 0.73 0.70 0.65 0.60 0.53 0.57 0.58 0.66 0.87 0.95 0.90 0.91 1.07 1.30 1.52 1.67 1.71 1.55 1.50 1.53 1.44 1.27 1.23 1.22 1.33 1.32 1.34 1.40 1.16 1.03 1.02 1.17 1.43 1.65
0.38 0.38 0.40 0.43 0.45 0.52 0.63 0.70 0.68 0.66 0.64 0.63 0.62 0.51 0.46 0.48 0.57 0.78 1.00 1.06 1.05 1.18 1.31 1.35 1.59 1.71 1.78 1.70 1.57 1.46 1.37 1.38 1.35 1.28 1.40 1.38 1.38 1.29 1.12 0.85 0.76 0.85 1.13
0.38 0.37 0.40 0.42 0.41 0.43 0.46 0.54 0.57 0.53 0.53 0.60 0.58 0.57 0.60 0.66 0.71 0.90 1.16 1.25 1.35 1.41 1.49 1.66 1.95 1.99 1.88 1.90 1.73 1.52 1.39 1.40 1.42 1.46 1.46 1.41 1.42 1.29 1.14 0.97 0.83 0.62 0.73
0.32 0.32 0.35 0.40 0.41 0.38 0.33 0.38 0.42 0.42 0.51 0.60 0.67 0.73 0.78 0.81 0.87 1.08 1.30 1.55 1.69 1.59 1.64 1.86 2.13 2.30 2.13 2.00 2.06 1.95 1.78 1.59 1.53 1.48 1.46 1.50 1.49 1.42 1.29 1.23 1.11 0.96 0.82
0.20 0.24 0.31 0.32 0.31 0.28 0.25 0.30 0.38 0.44 0.52 0.66 0.81 0.92 0.96 0.94 0.99 1.03 1.25 1.46 1.55 1.62 1.69 1.82 2.07 2.41 2.27 2.04 2.22 2.59 2.39 2.16 1.72 1.39 1.51 1.56 1.58 1.53 1.41 1.25 1.21 1.15 1.08
0.18 0.21 0.25 0.27 0.29 0.27 0.32 0.50 0.76 1.01 1.10 1.13 1.15 1.28 1.37 1.32 1.29 1.26 1.30 1.44 1.53 1.66 1.77 1.82 1.86 2.17 2.29 2.17 2.16 2.68 2.65 2.45 2.26 1.77 1.44 1.47 1.57 1.65 1.64 1.51 1.36 1.29 1.22
0.18 0.22 0.24 0.26 0.32 0.34 0.49 0.80 1.18 1.49 1.59 1.58 1.70 1.75 1.80 1.73 1.59 1.58 1.59 1.69 1.65 1.62 1.66 1.68 1.67 1.88 2.25 2.34 2.19 2.05 2.03 2.13 2.45 2.18 1.66 1.49 1.50 1.53 1.63 1.53 1.55 1.56 1.55
0.25 0.30 0.33 0.39 0.51 0.67 0.81 0.98 1.27 1.44 1.52 1.66 1.82 1.99 2.13 2.22 2.15 2.08 2.04 1.91 1.72 1.64 1.68 1.73 1.72 1.81 1.94 2.11 2.09 1.96 1.94 1.90 1.79 1.98 1.94 1.70 1.51 1.41 1.50 1.56 1.60 1.61 1.69
0.39 0.45 0.48 0.59 0.69 0.76 0.87 1.00 1.14 1.20 1.32 1.52 1.67 1.86 2.04 2.14 2.13 2.06 1.94 1.74 1.57 1.50 1.57 1.73 1.76 1.82 1.81 1.89 1.86 1.77 1.77 1.75 1.68 1.84 1.80 1.79 1.76 1.43 1.31 1.39 1.46 1.51 1.51